When you browse on this site, cookies collect data to enhance your experience and personalize the content and advertising you see.
Visit our Privacy Policy to learn more. By continuing to use the site, you agree to this use of cookies and data.
  • In Hungary
  • List of Countries
  • For 7 days
  • Water Temperature
  • Weather Map
  • News
  • Weather Widgets
  • user-avatar
    Login

    Hourly Weather Sokolniki

    Today, 21 February, Friday

    Time Temperature Precipitation Wind Pressure Humidity
    00:00 -2°C° 0 mm 1 mps 757 mmHg 96%
    01:00 -1°C° 0 mm 1 mps 757 mmHg 97%
    02:00 -1°C° 0 mm 1 mps 757 mmHg 97%
    03:00 0°C° 0 mm 1 mps 757 mmHg 99%
    04:00 0°C° 0 mm 1 mps 757 mmHg 98%
    05:00 +1°C° 0 mm 1 mps 757 mmHg 98%
    06:00 +1°C° 0 mm 1 mps 757 mmHg 97%
    07:00 +1°C° 0 mm 1 mps 758 mmHg 97%
    08:00 +1°C° 0 mm 1 mps 758 mmHg 97%
    09:00 +1°C° 0 mm 1 mps 758 mmHg 97%
    16:00 +1°C° 0 mm 1 mps 758 mmHg 94%
    17:00 +1°C° 0 mm 1 mps 759 mmHg 93%
    18:00 +1°C° 0 mm 1 mps 759 mmHg 92%
    19:00 +1°C° 0 mm 1 mps 759 mmHg 92%
    20:00 +1°C° 0 mm 1 mps 759 mmHg 93%
    21:00 0°C° 0 mm 1 mps 760 mmHg 93%
    22:00 -2°C° 0 mm 2 mps 760 mmHg 93%
    23:00 -2°C° 0 mm 2 mps 760 mmHg 93%

    Tomorrow, 22 February, Saturday

    Time Temperature Precipitation Wind Pressure Humidity
    00:00 -2°C° 0 mm 2 mps 760 mmHg 93%
    01:00 0°C° 0 mm 1 mps 760 mmHg 93%
    02:00 0°C° 0 mm 1 mps 760 mmHg 93%
    03:00 0°C° 0 mm 1 mps 760 mmHg 94%
    04:00 0°C° 0 mm 1 mps 760 mmHg 94%
    05:00 -1°C° 0 mm 1 mps 760 mmHg 94%
    06:00 -1°C° 0 mm 1 mps 760 mmHg 94%
    07:00 0°C° 0 mm 1 mps 760 mmHg 93%
    08:00 0°C° 0 mm 1 mps 761 mmHg 92%
    09:00 0°C° 0 mm 1 mps 761 mmHg 91%
    10:00 -2°C° 0 mm 2 mps 761 mmHg 88%
    11:00 -1°C° 0 mm 2 mps 761 mmHg 86%
    12:00 -1°C° 0 mm 2 mps 761 mmHg 83%
    13:00 -1°C° 0 mm 2 mps 761 mmHg 83%
    14:00 -1°C° 0 mm 2 mps 761 mmHg 83%
    15:00 -1°C° 0 mm 2 mps 761 mmHg 83%
    16:00 -1°C° 0 mm 2 mps 760 mmHg 86%
    17:00 -2°C° 0 mm 2 mps 760 mmHg 88%
    18:00 -2°C° 0 mm 2 mps 759 mmHg 90%
    19:00 -2°C° 0 mm 2 mps 759 mmHg 90%
    20:00 -2°C° 0 mm 3 mps 759 mmHg 90%
    21:00 -2°C° 0 mm 3 mps 759 mmHg 89%
    22:00 -2°C° 0 mm 3 mps 758 mmHg 89%
    23:00 -3°C° 0 mm 4 mps 758 mmHg 88%

    Day after tomorrow, 23 February, Sunday

    Time Temperature Precipitation Wind Pressure Humidity
    00:00 -4°C° 0 mm 4 mps 757 mmHg 88%
    01:00 -4°C° 0 mm 4 mps 756 mmHg 89%
    02:00 -4°C° 0 mm 4 mps 755 mmHg 90%
    03:00 -4°C° 0 mm 4 mps 755 mmHg 91%
    04:00 -5°C° 0 mm 5 mps 753 mmHg 90%
    05:00 -5°C° 0 mm 5 mps 752 mmHg 90%
    06:00 -5°C° 0 mm 5 mps 751 mmHg 90%
    07:00 -4°C° 0 mm 6 mps 751 mmHg 89%
    08:00 -4°C° 0 mm 6 mps 750 mmHg 89%
    09:00 -4°C° 0 mm 7 mps 749 mmHg 88%
    10:00 -3°C° 0 mm 7 mps 748 mmHg 88%
    11:00 -3°C° 0 mm 7 mps 747 mmHg 87%
    12:00 -4°C° 0 mm 8 mps 746 mmHg 87%
    13:00 -4°C° 0.2 mm 8 mps 745 mmHg 89%
    14:00 -4°C° 0.2 mm 8 mps 744 mmHg 92%
    15:00 -4°C° 0.2 mm 8 mps 743 mmHg 94%
    16:00 -3°C° 0.6 mm 7 mps 743 mmHg 95%
    17:00 -3°C° 0.6 mm 7 mps 742 mmHg 95%
    18:00 -3°C° 0.6 mm 6 mps 741 mmHg 96%
    19:00 -3°C° 0.5 mm 6 mps 741 mmHg 96%
    20:00 -3°C° 0.5 mm 6 mps 740 mmHg 96%
    21:00 -2°C° 0.5 mm 5 mps 740 mmHg 97%
    22:00 -2°C° 0.5 mm 5 mps 739 mmHg 97%
    23:00 -2°C° 0.5 mm 4 mps 738 mmHg 97%

    24 February, Monday

    Time Temperature Precipitation Wind Pressure Humidity
    00:00 -1°C° 0.5 mm 3 mps 738 mmHg 98%
    01:00 -1°C° 0.6 mm 3 mps 738 mmHg 97%
    02:00 -1°C° 0.6 mm 3 mps 737 mmHg 97%
    03:00 -2°C° 0.6 mm 4 mps 737 mmHg 96%
    04:00 -2°C° 0 mm 3 mps 737 mmHg 95%
    05:00 -4°C° 0 mm 3 mps 737 mmHg 94%
    06:00 -5°C° 0 mm 3 mps 737 mmHg 93%
    07:00 -5°C° 0 mm 3 mps 737 mmHg 93%
    08:00 -5°C° 0 mm 4 mps 738 mmHg 93%
    09:00 -5°C° 0 mm 4 mps 738 mmHg 93%
    10:00 -4°C° 0 mm 4 mps 738 mmHg 92%
    11:00 -3°C° 0 mm 4 mps 739 mmHg 92%
    12:00 -2°C° 0 mm 4 mps 739 mmHg 91%
    13:00 -2°C° 0 mm 4 mps 739 mmHg 91%
    14:00 -2°C° 0 mm 4 mps 739 mmHg 90%
    15:00 -1°C° 0 mm 3 mps 739 mmHg 90%
    16:00 -1°C° 0 mm 3 mps 739 mmHg 91%
    17:00 -1°C° 0 mm 3 mps 739 mmHg 91%
    18:00 -2°C° 0 mm 2 mps 739 mmHg 92%
    19:00 -2°C° 0 mm 2 mps 739 mmHg 93%
    20:00 -2°C° 0 mm 2 mps 740 mmHg 93%
    21:00 -1°C° 0 mm 1 mps 740 mmHg 94%
    22:00 -1°C° 0 mm 1 mps 740 mmHg 95%
    23:00 -1°C° 0 mm 1 mps 740 mmHg 95%

    25 February, Tuesday

    Time Temperature Precipitation Wind Pressure Humidity
    00:00 -1°C° 0 mm 1 mps 740 mmHg 96%
    01:00 -1°C° 0 mm 1 mps 740 mmHg 95%
    02:00 -1°C° 0 mm 1 mps 740 mmHg 95%
    03:00 -2°C° 0 mm 0 mps 740 mmHg 95%
    04:00 -1°C° 0 mm 1 mps 740 mmHg 95%
    05:00 -2°C° 0 mm 1 mps 740 mmHg 95%
    06:00 -2°C° 0 mm 1 mps 740 mmHg 95%
    07:00 -4°C° 0 mm 2 mps 741 mmHg 94%
    08:00 -3°C° 0 mm 2 mps 741 mmHg 93%
    09:00 -4°C° 0 mm 3 mps 741 mmHg 93%
    10:00 -4°C° 0 mm 4 mps 742 mmHg 91%
    11:00 -3°C° 0 mm 4 mps 742 mmHg 90%
    12:00 -4°C° 0 mm 5 mps 742 mmHg 89%
    13:00 -2°C° 0 mm 5 mps 742 mmHg 87%
    14:00 -2°C° 0 mm 5 mps 743 mmHg 86%
    15:00 -2°C° 0 mm 5 mps 743 mmHg 85%
    16:00 -2°C° 0 mm 4 mps 744 mmHg 85%
    17:00 -3°C° 0 mm 4 mps 744 mmHg 85%
    18:00 -3°C° 0 mm 4 mps 744 mmHg 86%
    19:00 -4°C° 0 mm 4 mps 745 mmHg 86%
    20:00 -4°C° 0 mm 3 mps 745 mmHg 87%
    21:00 -5°C° 0 mm 3 mps 746 mmHg 88%
    22:00 -6°C° 0 mm 3 mps 746 mmHg 89%
    23:00 -6°C° 0 mm 2 mps 746 mmHg 90%

    26 February, Wednesday

    Time Temperature Precipitation Wind Pressure Humidity
    00:00 -7°C° 0 mm 2 mps 746 mmHg 90%
    01:00 -7°C° 0 mm 2 mps 746 mmHg 91%
    02:00 -7°C° 0 mm 2 mps 746 mmHg 91%
    03:00 -8°C° 0 mm 2 mps 747 mmHg 91%
    04:00 -8°C° 0 mm 2 mps 746 mmHg 91%
    05:00 -8°C° 0 mm 2 mps 746 mmHg 90%
    06:00 -8°C° 0 mm 2 mps 746 mmHg 90%
    07:00 -7°C° 0 mm 2 mps 746 mmHg 88%
    08:00 -7°C° 0 mm 3 mps 746 mmHg 86%
    09:00 -6°C° 0 mm 3 mps 746 mmHg 84%
    10:00 -5°C° 0 mm 4 mps 746 mmHg 82%
    11:00 -4°C° 0 mm 4 mps 746 mmHg 79%
    12:00 -4°C° 0 mm 5 mps 745 mmHg 77%
    13:00 -2°C° 0 mm 5 mps 745 mmHg 80%
    14:00 -2°C° 0 mm 5 mps 745 mmHg 83%
    15:00 -2°C° 0 mm 5 mps 744 mmHg 86%
    16:00 -2°C° 0 mm 4 mps 744 mmHg 88%
    17:00 -2°C° 0 mm 4 mps 744 mmHg 90%
    18:00 -2°C° 0 mm 4 mps 744 mmHg 93%
    19:00 -1°C° 0 mm 3 mps 744 mmHg 93%
    20:00 -1°C° 0 mm 3 mps 744 mmHg 94%
    21:00 -1°C° 0 mm 3 mps 744 mmHg 94%
    22:00 -1°C° 0 mm 3 mps 743 mmHg 95%
    23:00 -1°C° 0 mm 3 mps 743 mmHg 96%
    Show more